Nashville, TN

8:27 AM CST on December 13, 2019 (GMT -0600)
Nashville International

Weather History for KBNA - October, 2019

Change the Weather History Date:

Monday, October 28, 2019

  Actual Average Record
Temperature  
Mean Temperature 56 °F 56 °F  
Max Temperature 65 °F 68 °F 83 °F (1971)
Min Temperature 46 °F 45 °F 28 °F (1957)
Degree Days  
Heating Degree Days 10    
Month to date heating degree days 120  
Since 1 July heating degree days 120  
Cooling Degree Days 0    
Month to date cooling degree days 109  
Year to date cooling degree days 2280  
Growing Degree Days 6 (Base 50)    
Moisture  
Dew Point 50 °F    
Average Humidity 87    
Maximum Humidity 96    
Minimum Humidity 65    
Precipitation  
Precipitation 0.00 in 0.11 in 1.99 in (1979)
Month to date precipitation 4.85 2.73  
Year to date precipitation 52.27 38.39  
Sea Level Pressure  
Sea Level Pressure 30.10 in    
Wind  
Wind Speed 1 mph ()    
Max Wind Speed 7 mph    
Max Gust Speed 8 mph    
Visibility 4.0 miles    
Events Fog    
T = Trace of Precipitation, MM = Missing Value Source: Averaged Metar Reports

Daily Weather History Graph

Daily Weather History Graph

Search for Another Location

Airport or City:

Astronomy

Oct. 28, 2019 Rise Set
Actual Time 7:05 AM CDT 5:55 PM CDT
Civil Twilight 6:38 AM CDT 6:21 PM CDT
Nautical Twilight 6:08 AM CDT 6:51 PM CDT
Astronomical Twilight 5:38 AM CDT 7:21 PM CDT
Moon 7:27 AM CDT (10/28) 6:40 PM CDT (10/28)
Length of Visible Light 11h 42m
Length of Day
10h 49m
New Moon, 0% of the Moon is Illuminated
Oct 28
New Moon
Nov 4
First Quarter
Nov 12
Full
Nov 19
Last Quarter
Nov 26
New

Hourly Weather History & Observations

Time (CDT) Temp. Dew Point Humidity Pressure Visibility Wind Dir Wind Speed Gust Speed Precip Events Conditions
12:53 AM 48.9 °F 46.0 °F 90% 30.08 in 5.0 mi Calm Calm - N/A   Clear
1:53 AM 48.0 °F 46.0 °F 93% 30.08 in 5.0 mi Calm Calm - N/A   Scattered Clouds
2:19 AM 46.9 °F 45.0 °F 93% 30.08 in 3.0 mi South 3.5 mph - N/A   Mostly Cloudy
2:23 AM 48.0 °F 45.0 °F 89% 30.09 in 3.0 mi South 3.5 mph - N/A   Mostly Cloudy
2:38 AM 46.9 °F 45.0 °F 93% 30.09 in 0.5 mi South 3.5 mph - N/A   Overcast
2:53 AM 46.9 °F 45.0 °F 93% 30.09 in 0.2 mi South 3.5 mph - N/A Fog Fog
3:01 AM 46.9 °F 45.0 °F 93% 30.09 in 0.2 mi South 3.5 mph - N/A Fog Fog
3:36 AM 46.9 °F 44.1 °F 90% 30.08 in 0.5 mi Calm Calm - N/A Fog Fog
3:44 AM 46.9 °F 44.1 °F 90% 30.08 in 0.2 mi Calm Calm - N/A Fog Fog
3:53 AM 46.9 °F 45.0 °F 93% 30.08 in 0.2 mi Calm Calm - N/A Fog Fog
4:19 AM 48.0 °F 46.0 °F 93% 30.09 in 0.5 mi Calm Calm - N/A Fog Fog
4:36 AM 48.9 °F 46.0 °F 90% 30.09 in 0.2 mi Calm Calm - N/A Fog Fog
4:51 AM 48.2 °F 46.4 °F 93% 30.10 in 0.1 mi SSW 3.5 mph - N/A Fog Fog
4:53 AM 48.9 °F 46.9 °F 93% 30.09 in 0.1 mi Calm Calm - N/A Fog Fog
5:30 AM 50.0 °F 48.9 °F 96% 30.11 in 0.2 mi Calm Calm - N/A Fog Fog
5:53 AM 51.1 °F 48.9 °F 92% 30.10 in 0.2 mi Calm Calm - N/A Fog Fog
6:50 AM 51.8 °F 50.0 °F 94% 30.11 in 0.2 mi Calm Calm - N/A Fog Fog
6:53 AM 52.0 °F 50.0 °F 93% 30.11 in 0.2 mi Calm Calm - N/A Fog Fog
7:33 AM 53.1 °F 51.1 °F 93% 30.12 in 0.5 mi Calm Calm - N/A Fog Fog
7:53 AM 53.1 °F 51.1 °F 93% 30.12 in 0.2 mi Calm Calm - N/A Fog Patches of Fog
8:12 AM 54.0 °F 52.0 °F 93% 30.13 in 1.0 mi Calm Calm - N/A Fog Patches of Fog
8:53 AM 54.0 °F 52.0 °F 93% 30.14 in 1.0 mi NW 3.5 mph - N/A Fog Patches of Fog
9:04 AM 54.0 °F 52.0 °F 93% 30.14 in 2.0 mi Calm Calm - N/A Fog Patches of Fog
9:53 AM 55.9 °F 53.1 °F 90% 30.14 in 2.5 mi Calm Calm - N/A   Overcast
10:07 AM 57.0 °F 53.1 °F 87% 30.14 in 3.0 mi NNW 3.5 mph - N/A   Overcast
10:43 AM 57.9 °F 53.1 °F 84% 30.14 in 3.0 mi Calm Calm - N/A   Haze
10:53 AM 57.9 °F 53.1 °F 84% 30.13 in 5.0 mi NE 3.5 mph - N/A   Haze
11:53 AM 60.1 °F 53.1 °F 78% 30.11 in 9.0 mi East 3.5 mph - N/A   Overcast
12:19 PM 60.1 °F 52.0 °F 75% 30.11 in 10.0 mi Calm Calm - N/A   Overcast
12:53 PM 60.1 °F 53.1 °F 78% 30.09 in 10.0 mi East 3.5 mph - N/A   Overcast
1:53 PM 61.0 °F 53.1 °F 75% 30.07 in 10.0 mi North 6.9 mph - N/A   Overcast
2:53 PM 63.0 °F 53.1 °F 70% 30.07 in 10.0 mi NNE 4.6 mph - N/A   Mostly Cloudy
3:53 PM 64.9 °F 53.1 °F 65% 30.05 in 10.0 mi Calm Calm - N/A   Mostly Cloudy
4:53 PM 63.0 °F 53.1 °F 70% 30.06 in 10.0 mi ENE 4.6 mph - N/A   Mostly Cloudy
5:53 PM 61.0 °F 52.0 °F 72% 30.07 in 10.0 mi NNE 3.5 mph - N/A   Mostly Cloudy
6:53 PM 57.9 °F 52.0 °F 81% 30.07 in 10.0 mi Calm Calm - N/A   Partly Cloudy
7:53 PM 55.0 °F 51.1 °F 86% 30.09 in 10.0 mi Calm Calm - N/A   Clear
8:53 PM 55.0 °F 51.1 °F 86% 30.08 in 10.0 mi SSE 3.5 mph - N/A   Clear
9:53 PM 53.1 °F 50.0 °F 89% 30.09 in 8.0 mi South 3.5 mph - N/A   Clear
10:53 PM 53.1 °F 50.0 °F 89% 30.07 in 6.0 mi SE 4.6 mph - N/A   Clear